カタログに戻る

COSMOS 1275 DEB

運用中PO
NORAD 13810·DEBRIS·🇷🇺 Russia

打ち上げ Jun 4, 1981 から Plesetsk Cosmodrome

Loading…

次のパス (今後24時間)

TLE

最新Source: Space-Track

元期: Sep 14, 2026, 02:43 UTC

1 13810U 81053HE  26257.11359921  .00000653  00000-0  70571-3 0  9990
2 13810  83.0116 302.3442 0124963 126.0369 264.6048 13.68416886168314

AllMySatでCOSMOS 1275 DEBをリアルタイム追跡

Download on the App Store